Regional Weather Roundup
Issued by NWS Kansas City/Pleasant Hill, MO

Home | Current Version | Previous Version | Text Only | Print | Product List | Glossary On
Versions: 1 2 3 4 5 6 7 8 9 10 11 12 13 14 15 16 17 18 19 20 21 22 23 24 25 26 27 28 29 30 31 32 33 34 35 36 37 38 39 40 41 42 43 44 45 46 47 48 49 50
000
ASUS43 KEAX 192210
RWREAX

WEATHER ROUNDUP FOR EASTERN KANSAS AND NORTHWEST MISSOURI
NATIONAL WEATHER SERVICE KANSAS CITY/PLEASANT HILL MO
500 PM CDT SAT AUG 19 2017

KSZ040-057-103>105-MOZ028-029-037-043-192300-
...KANSAS CITY METROPOLITAN AREA...

CITY           SKY/WX    TMP DP  RH WIND       PRES   REMARKS
K.C. INTL      MOSUNNY   89  66  46 S3        29.93F HX  91
K.C. DOWNTOWN  SUNNY     94  67  41 E6        29.90F HX  97
LEES SUMMIT    SUNNY     90  71  53 E8        29.93F HX  96
OLATHE - IXD   SUNNY     90  71  53 SE8       29.93F HX  96
OLATHE - OJC   SUNNY     88  69  53 S8        29.93F HX  92
LAWRENCE       SUNNY     92  68  45 SE9       29.90F HX  96

$$

MOZ001>008-011>017-020>025-030>033-038>040-044>046-053-054-192300-
...NORTHERN AND CENTRAL MISSOURI...

CITY           SKY/WX    TMP DP  RH WIND       PRES   REMARKS
ST. JOSEPH     SUNNY     89  69  51 S8        29.91F HX  93
MOSBY          CLEAR     88  64  45 E6        29.92F
WARRENSBURG    SUNNY     88  70  55 CALM      29.93S HX  92
WHITEMAN AFB   SUNNY     90  66  46 CALM      29.92F HX  92
CLINTON        SUNNY     90  70  51 MISG      29.93F HX  95
SEDALIA        SUNNY     90  73  57 S3        29.95F HX  98
WARSAW         NOT AVBL
CHILLICOTHE      N/A     91  58  32 VRB5      29.92F HX  90
KIRKSVILLE     SUNNY     91  52  26 W6        29.93S

$$

MOZ041-047>049-056>058-063>065-088>090-097-192300-
...EASTERN AND SOUTHERN MISSOURI...

CITY           SKY/WX    TMP DP  RH WIND       PRES   REMARKS
ST. LOUIS INTL MOSUNNY   91  67  44 NW6       29.92F HX  94
SPIRIT OF STL  MOSUNNY   91  68  46 W5        29.91S HX  95
COLUMBIA       SUNNY     89  67  47 W9        29.94F HX  92
JEFFERSON CITY SUNNY     90  73  57 CALM      29.91F HX  98
ROLLA          SUNNY     89  66  46 W6        29.97S HX  91
OSAGE BEACH    SUNNY     89  71  55 W7        29.95F HX  95
SPRINGFIELD    CLOUDY    91  73  55 W5        29.95F HX  99
BRANSON        PTSUNNY   91  75  59 N5        29.97F HX 102
JOPLIN         SUNNY     94  74  52 SW6       29.93F HX 104
WEST PLAINS    CLOUDY    94  60  32 VRB6      29.98S HX  94

$$

IAZ060-094-KSZ022-034>040-054-083-096-NEZ052-066-093-192300-
...KANSAS...SOUTHEAST NEBRASKA AND IOWA...

CITY           SKY/WX    TMP DP  RH WIND       PRES   REMARKS
TOPEKA         SUNNY     92  71  50 E9        29.90F HX  98
MANHATTAN      SUNNY     92  73  53 S9        29.87F HX 100
EMPORIA        CLOUDY    88  67  49 SE12      29.92S HX  91
CHANUTE        CLOUDY    95  74  50 S8        29.89F HX 105
WICHITA        CLOUDY    93  67  42 S16       29.88S HX  96
OMAHA          MOSUNNY   88  59  37 S12       29.89F
LINCOLN        SUNNY     87  65  47 SE12      29.89F
FALLS CITY     SUNNY     88  65  46 E12       29.89F HX  90
LAMONI         SUNNY     90  54  29 W6        29.92F
DES MOINES     MOSUNNY   85  61  44 MISG      29.90F

$$




USA.gov is the U.S. government's official web portal to all federal, state and local government web resources and services.